Custer, SD

4:28 AM MST on December 10, 2016 (GMT -0700)
Custer County

Weather History for KCUT - August, 2013

Change the Weather History Date:

Wednesday, August 21, 2013

  Actual Average Record
Temperature  
Mean Temperature 62 °F 63 °F  
Max Temperature 72 °F 77 °F 91 °F (1947)
Min Temperature 52 °F 50 °F 33 °F (1950)
Degree Days  
Heating Degree Days 3 3  
Month to date heating degree days 52 51  
Since 1 June heating degree days 287 332  
Since 1 July heating degree days 94 112  
Cooling Degree Days 0 2  
Month to date cooling degree days 20 42  
Year to date cooling degree days 94 149  
Since 1 June cooling degree days 92 148  
Growing Degree Days 12 (Base 50)    
Moisture  
Dew Point 50 °F    
Average Humidity 67    
Maximum Humidity 86    
Minimum Humidity 48    
Precipitation  
Precipitation 0.06 in 0.07 in 0.79 in (2002)
Month to date precipitation 3.95 1.44  
Year to date precipitation 15.95 14.21  
Sea Level Pressure  
Sea Level Pressure 30.00 in    
Wind  
Wind Speed 5 mph (NNE)    
Max Wind Speed 22 mph    
Max Gust Speed 29 mph    
Visibility 10 miles    
Events Rain    
T = Trace of Precipitation, MM = Missing Value Source: NWS Daily Summary

Daily Weather History Graph

Daily Weather History Graph

Search for Another Location

Airport or City:

Trip Planner

Search our weather history database for the weather conditions in past years. The results will help you decide how hot, cold, wet, or windy it might be!

Date:

Astronomy

Aug. 21, 2013 Rise Set
Actual Time 6:05 AM MDT 7:48 PM MDT
Civil Twilight 5:35 AM MDT 8:18 PM MDT
Nautical Twilight 4:58 AM MDT 8:55 PM MDT
Astronomical Twilight 4:18 AM MDT 9:35 PM MDT
Moon 7:53 PM MDT (8/21) 6:52 AM MDT (8/21)
Length of Visible Light 14h 43m
Length of Day
13h 42m
Full, 99% of the Moon is Illuminated
Aug 21
Full
Aug 28
Last Quarter
Sep 5
New
Sep 12
First Quarter
Sep 19
Full

Hourly Weather History & Observations

Time (MDT) Temp. Dew Point Humidity Pressure Visibility Wind Dir Wind Speed Gust Speed Precip Events Conditions
12:53 AM 66.9 °F 46.0 °F 47% 29.91 in 10.0 mi Calm Calm - N/A   Overcast
1:53 AM 64.0 °F 46.9 °F 54% 29.91 in 10.0 mi NNW 4.6 mph - N/A   Mostly Cloudy
2:53 AM 60.1 °F 46.0 °F 60% 29.92 in 10.0 mi NNW 4.6 mph - N/A   Clear
3:53 AM 64.0 °F 45.0 °F 50% 29.90 in 10.0 mi NW 4.6 mph - N/A   Clear
4:53 AM 63.0 °F 46.0 °F 54% 29.92 in 10.0 mi NNW 3.5 mph - N/A   Clear
5:53 AM 63.0 °F 46.9 °F 56% 29.92 in 10.0 mi NNW 4.6 mph - N/A   Clear
6:53 AM 63.0 °F 48.0 °F 58% 29.94 in 10.0 mi WNW 5.8 mph - N/A   Scattered Clouds
7:53 AM 64.9 °F 48.0 °F 54% 29.96 in 10.0 mi Calm Calm - N/A   Overcast
8:53 AM 64.9 °F 48.9 °F 56% 29.97 in 10.0 mi Calm Calm - N/A   Overcast
9:53 AM 69.1 °F 50.0 °F 51% 30.00 in 10.0 mi SSW 3.5 mph - 0.00 in Rain Light Rain
10:53 AM 64.0 °F 52.0 °F 65% 30.02 in 7.0 mi SSE 13.8 mph 19.6 mph 0.00 in Rain Light Rain
11:53 AM 62.1 °F 54.0 °F 75% 30.04 in 10.0 mi East 4.6 mph - 0.04 in   Overcast
12:53 PM 60.1 °F 54.0 °F 80% 30.06 in 9.0 mi SE 9.2 mph - 0.02 in Rain Light Rain
1:53 PM 68.0 °F 53.1 °F 59% 30.05 in 10.0 mi East 5.8 mph - 0.00 in   Partly Cloudy
2:53 PM 69.1 °F 51.1 °F 53% 30.03 in 10.0 mi East 8.1 mph - N/A   Clear
3:53 PM 68.0 °F 52.0 °F 56% 30.03 in 10.0 mi East 8.1 mph - N/A   Clear
4:53 PM 69.1 °F 51.1 °F 53% 30.02 in 10.0 mi East 6.9 mph - N/A   Clear
5:53 PM 69.1 °F 52.0 °F 54% 30.02 in 10.0 mi ENE 5.8 mph - N/A   Clear
6:53 PM 64.9 °F 53.1 °F 65% 30.04 in 10.0 mi East 6.9 mph - N/A   Clear
7:53 PM 61.0 °F 52.0 °F 72% 30.05 in 10.0 mi North 3.5 mph - N/A   Clear
8:53 PM 61.0 °F 51.1 °F 70% 30.06 in 10.0 mi North 3.5 mph - N/A   Clear
9:53 PM 55.0 °F 51.1 °F 86% 30.09 in 10.0 mi NW 3.5 mph - N/A   Clear
10:53 PM 57.0 °F 50.0 °F 77% 30.09 in 10.0 mi West 3.5 mph - N/A   Clear
11:53 PM 55.0 °F 48.9 °F 80% 30.11 in 10.0 mi Calm Calm - N/A   Clear